Regional Weather Roundup
Issued by NWS San Angelo, TX

Home | Current Version | Previous Version | Text Only | Print | Product List | Glossary On
Versions: 1 2 3 4 5 6 7 8 9 10 11 12 13 14 15 16 17 18 19 20 21 22 23 24 25 26 27 28 29 30 31 32 33 34 35 36 37 38 39 40 41 42 43 44 45 46 47 48 49 50
000
ASUS44 KSJT 210510
RWRSJT
WEST CENTRAL TEXAS REGIONAL WEATHER ROUNDUP
NATIONAL WEATHER SERVICE SAN ANGELO TX
1200 AM CDT TUE OCT 21 2014

NOTE: "FAIR" INDICATES FEW OR NO CLOUDS BELOW 12,000 FEET WITH NO
SIGNIFICANT WEATHER AND/OR OBSTRUCTIONS TO VISIBILITY.

TXZ049-054-064>066-071>073-076>078-098-099-113-114-127-128-139-140-
154-155-168>170-210600
...LOCATIONS ACROSS WEST CENTRAL TEXAS...

CITY           SKY/WX    TMP DP  RH WIND       PRES   REMARKS
SAN ANGELO     CLEAR     61  51  70 SE3       30.07S
ABILENE        PTCLDY    63  53  70 S6        30.07F
DYESS AFB      PTCLDY    63  53  70 S6        30.06F
JUNCTION       CLEAR     63  55  75 CALM      30.07S
SWEETWATER     CLOUDY    64  53  66 S7        30.12S
BROWNWOOD      PTCLDY    61  57  88 CALM      30.07S
COLEMAN        PTCLDY    66  57  74 S3        30.08S
SONORA         CLEAR     66  54  63 CALM      30.12S
OZONA          FAIR      61  57  88 NE3       30.11R
BRADY          CLEAR     63  54  72 E3        30.07S
$$

TEXAS PANHANDLE/OKLAHOMA PANHANDLE

CITY           SKY/WX    TMP DP  RH WIND       PRES   REMARKS
AMARILLO       PTCLDY    58  51  78 S6        30.12F
BORGER         CLEAR     63  51  65 W3        30.09F
CANADIAN       CLEAR     63  59  86 SE5       30.07S
DALHART        PTCLDY    56  47  71 SE3       30.15S
DUMAS          CLEAR     55  47  75 CALM      30.12F
GUYMON         NOT AVBL
HEREFORD       PTCLDY    57  54  88 CALM      30.14S
PAMPA          CLEAR     58  52  80 SE7       30.10F
PERRYTON       PTCLDY    59  56  88 E8        30.09F
$$

SOUTHERN PANHANDLE/SOUTH PLAINS/ROLLING PLAINS

CITY           SKY/WX    TMP DP  RH WIND       PRES   REMARKS
LUBBOCK        PTCLDY    59  52  77 S5        30.11S
SNYDER         MOCLDY    64  53  67 SE8       30.10S
CHILDRESS      CLEAR     64  54  69 S8        30.07S
SEMINOLE       PTCLDY    60  52  75 SE6       30.13S
$$

PERMIAN BASIN

CITY           SKY/WX    TMP DP  RH WIND       PRES   REMARKS
MIDLAND        MOCLDY    66  52  60 SE8       30.09S
ODESSA         MOCLDY    66  51  58 SE8       30.10F
WINK           MOCLDY    63  62  97 NE5       30.07S
$$

FAR WEST/SOUTHWEST MOUNTAINS/TRANS PECOS

CITY           SKY/WX    TMP DP  RH WIND       PRES   REMARKS
ALPINE         MOCLDY    60  56  87 SE3       30.17F
DRYDEN           N/A     65  61  87 N6        30.05S
EL PASO        PTCLDY    62  55  77 N8        30.08R
FORT STOCKTON  MOCLDY    64  59  83 SE13      30.07F
GUADALUPE PASS PTCLDY    54  53  97 NE29      30.15S
MARFA          CLOUDY    57  55  94 NE6       30.15F
PECOS          MOCLDY    64  62  94 CALM      30.07S FOG
$$

DALLAS/FORT WORTH METROPLEX

CITY           SKY/WX    TMP DP  RH WIND       PRES   REMARKS
DFW AIRPORT    PTCLDY    67  59  75 SE3       30.04F
FTW MEACHAM    CLEAR     68  59  73 S3        30.05S
DAL-EXECUTIVE  CLEAR     65  59  81 S5        30.05S
GRAND PRAIRIE  CLEAR     68  60  76 CALM      30.07S
ADDISON        CLEAR     70  61  73 SE9       30.07R
MESQUITE       CLEAR     63  58  82 SE5       30.06S
LANCASTER      CLEAR     62  57  83 CALM      30.06S
$$

NORTH CENTRAL TEXAS

CITY           SKY/WX    TMP DP  RH WIND       PRES   REMARKS
SHRMAN/DENISON CLEAR     68  62  81 S7        30.06S
GAINESVILLE    CLEAR     65  60  81 MISG      30.07S
BRIDGEPORT     CLEAR     68  59  72 S8        30.07S
DENTON         CLEAR     64  59  83 S3        30.05S
WAXAHACHIE     CLEAR     63  59  87 CALM      30.07S
GRANBURY       CLEAR     67  58  72 CALM      30.07S
$$

WESTERN NORTH TEXAS

CITY           SKY/WX    TMP DP  RH WIND       PRES   REMARKS
WICHITA FALLS  CLEAR     65  58  78 S9        30.04S
VERNON         CLEAR     66  55  68 S7        30.05S
BRECKENRIDGE   CLEAR     68  56  64 SE8       30.06S HAZE
COMANCHE       PTCLDY    64  58  82 S5        30.07S
$$

CENTRAL AND SOUTH CENTRAL TEXAS

CITY           SKY/WX    TMP DP  RH WIND       PRES   REMARKS
AUSTIN/BERGSTM PTCLDY    61  59  93 CALM      30.04S
WACO           CLEAR     60  58  92 CALM      30.05F
HILLSBORO      PTCLDY    65  56  74 CALM      30.06S
TEMPLE         PTCLDY    64  55  72 E5        30.04F
KILLEEN-GRAY   PTCLDY    66  57  72 SE6       30.05F
FORT HOOD      CLEAR     67  59  75 CALM      30.05F
GEORGETOWN     PTCLDY    61  57  88 CALM      30.05S
LAGO VISTA     FAIR      67  58  73 E7        30.06F
SAN MARCOS     MOCLDY    66  54  63 NE5       30.05S
NEW BRAUNFELS  MOCLDY    68  60  75 NE5       30.02S
RANDOLPH AFB   CLEAR     67  58  71 E5        30.03F
SAN ANTONIO    MOCLDY    70  59  68 NE5       30.04S
STINSON        CLEAR     71  58  63 E6        30.01S
PLEASANTON     NOT AVBL
LA GRANGE      MOCLDY    65  63  90 CALM      30.01S
GIDDINGS       MOCLDY    67  59  75 CALM      30.07S
$$

EAST TEXAS

CITY           SKY/WX    TMP DP  RH WIND       PRES   REMARKS
PARIS          CLEAR     64  54  68 CALM      30.06S
CLARKSVILLE    NOT AVBL
TYLER          CLEAR     64  55  72 CALM      30.05F
LONGVIEW       CLEAR     59  56  89 CALM      30.05S
PALESTINE      CLEAR     59  58  96 CALM      30.06F
NACOGDOCHES    CLEAR     54  52  94 CALM      30.06S
$$

TEXAS HILL COUNTRY AND EDWARDS PLATEAU

CITY           SKY/WX    TMP DP  RH WIND       PRES   REMARKS
LLANO          CLEAR     63  57  82 CALM      30.09S
HORSESHOE BAY  FAIR      64  57  79 S3        30.06S
KERRVILLE      CLEAR     61  58  88 CALM      30.07S
FREDERICKSBRG  CLEAR     60  56  87 CALM      30.07F
ROCKSPRINGS    CLEAR     64  55  72 E3        30.10S
HONDO          CLEAR     64  56  75 E6        30.04F
UVALDE         CLEAR     68  59  72 E5        30.03S
DEL RIO        CLOUDY    72  60  66 E6        30.01R
$$

SOUTHEAST TEXAS

CITY           SKY/WX    TMP DP  RH WIND       PRES   REMARKS
COLLEGE STN    MOCLDY    67  60  78 NE3       30.03F
CALDWELL       CLOUDY    64  61  88 CALM      30.07S
CROCKETT       CLEAR     59  59 100 CALM      30.08S FOG
BRENHAM        CLOUDY    66  62  85 CALM      30.04S
HUNTSVILLE     CLEAR     60  57  89 CALM      30.04F
CONROE         PTCLDY    58  56  93 CALM      30.04F
HOUSTON BUSH   MOCLDY    64  58  80 NE5       30.02F
HOUSTON HOBBY  MOCLDY    68  59  73 E3        30.01F
PERLAND        MOCLDY    69  60  73 NE5       30.02F
WHARTON        PTCLDY    64  61  88 NE3       30.02F
$$

THE UPPER TEXAS COAST

CITY           SKY/WX    TMP DP  RH WIND       PRES   REMARKS
ORANGE         PTCLDY   N/A N/A N/A CALM      30.04S
PORT ARTHUR    PTCLDY    63  58  83 NE3       30.02S
GALVESTON      MOCLDY    72  64  76 NE7       30.02F
ANGLETON       PTCLDY    64  64 100 N5        30.01F FOG
BAY CITY         N/A     67  67  99 NE3       30.01S
$$

TEXAS COASTAL BEND, RIO GRANDE PLAINS DEEP SOUTH TEXAS

CITY           SKY/WX    TMP DP  RH WIND       PRES   REMARKS
VICTORIA       CLEAR     67  63  87 E5        30.01F
BEEVILLE       FAIR      70  68  95 E6        30.00F
ROCKPORT       CLEAR     76  69  79 E12       29.98F
PORT ARANSAS   MOCLDY    76  70  82 E12       29.97F
PORT LAVACA    CLEAR     72  67  84 E9        30.00S
CORPUS CHRISTI PTCLDY    75  70  84 E9        29.97F
KINGSVILLE NAS PTCLDY    72  72 100 N3        29.97S
COTULLA        CLEAR     72  63  73 SE7       30.00S
LAREDO         PTCLDY    72  68  87 E6        30.01F
BROWNSVILLE    PTCLDY    75  69  81 NE3       29.94S
PORT ISABEL    LGT RAIN  77  72  84 NE9       29.93F
HEBBRONVILLE   CLEAR     70  67  92 NE6       30.00S
MCALLEN        PTCLDY    73  70  90 NE5       29.96S
WESLACO        CLEAR     70  67  89 NE3       29.94F
FALFURRIAS     CLEAR     70  68  95 NE5       29.97S
EDINBURG       CLEAR     72  69  90 N5        29.96S
$$


USA.gov is the U.S. government's official web portal to all federal, state and local government web resources and services.